FW6905 Weather Reports


Display with metric or nautical units.
time (UTC)temp
F
wind
direction
speed
MPH
gust
MPH
rain 1hr
in
rain 24hr
in
rain mn
in
humidity
%
barometer
mb
20260510043505 51 350 0.0 2.0 0.00 0.00 0.00 88 1017.7
20260510043005 51 90 0.0 2.0 0.00 0.00 0.00 89 1017.7
20260510042504 51 1 0.0 2.0 0.00 0.00 0.00 89 1017.7
20260510042005 51 1 1.0 2.0 0.00 0.00 0.00 88 1017.7
20260510041005 51 181 0.0 2.0 0.00 0.00 0.00 88 1017.7
20260510040504 50 112 0.0 2.0 0.00 0.00 0.00 87 1017.7
20260510035505 50 57 0.0 2.0 0.00 0.00 0.00 87 1017.7
20260510035005 50 56 1.0 2.0 0.00 0.00 0.00 87 1017.7
20260510034505 50 270 0.0 2.0 0.00 0.00 0.00 87 1017.7
20260510033505 50 292 0.0 2.0 0.00 0.00 0.00 87 1017.7
20260510032505 50 0 0.0 0.0 0.00 0.00 0.00 87 1018.8
20260510032005 51 337 0.0 2.0 0.00 0.00 0.00 87 1018.8
20260510031005 51 158 0.0 2.0 0.00 0.00 0.00 87 1017.7
20260510030504 51 158 1.0 2.0 0.00 0.00 0.00 88 1017.7
20260510030005 51 0 0.0 0.0 0.00 0.00 0.00 87 1017.7
20260510025504 51 0 0.0 0.0 0.00 0.00 0.00 87 1017.7
20260510025005 51 0 0.0 0.0 0.00 0.00 0.00 87 1017.7
20260510024504 51 0 0.0 0.0 0.00 0.00 0.00 87 1017.7
20260510024005 51 158 0.0 1.0 0.00 0.00 0.00 87 1017.7
20260510023505 51 158 0.0 1.0 0.00 0.00 0.00 87 1017.7
20260510023005 51 158 0.0 2.0 0.00 0.00 0.00 86 1017.7
20260510022505 51 158 0.0 2.0 0.00 0.00 0.00 86 1016.7
20260510021506 51 158 0.0 1.0 0.00 0.00 0.00 86 1016.7
20260510020504 51 181 0.0 2.0 0.00 0.00 0.00 86 1017.7
20260510020005 51 270 0.0 2.0 0.00 0.00 0.00 86 1017.7
20260510015504 51 336 0.0 2.0 0.00 0.00 0.00 85 1016.7
20260510014505 51 22 0.0 2.0 0.00 0.00 0.00 85 1016.7
20260510014004 51 0 0.0 0.0 0.00 0.00 0.00 85 1017.7
20260510013505 51 0 0.0 0.0 0.00 0.00 0.00 85 1017.7
20260510013004 51 0 0.0 0.0 0.00 0.00 0.00 85 1017.7
20260510012505 51 0 0.0 0.0 0.00 0.00 0.00 85 1017.7
20260510011505 51 221 0.0 2.0 0.00 0.00 0.00 85 1017.7
20260510011005 52 62 0.0 2.0 0.00 0.00 0.00 85 1017.7
20260510010505 52 25 0.0 2.0 0.00 0.00 0.00 84 1017.7
20260510005505 52 123 0.0 2.0 0.00 0.00 0.00 85 1017.7
20260510004505 52 158 0.0 2.0 0.00 0.00 0.00 85 1017.7
20260510004005 52 45 0.0 2.0 0.00 0.00 0.00 85 1017.7
20260510003505 52 60 0.0 2.0 0.00 0.00 0.00 84 1017.7
20260510002505 52 14 0.0 3.0 0.00 0.00 0.00 82 1017.7
20260510002005 52 7 2.0 2.0 0.00 0.00 0.00 81 1017.7
20260510001505 52 158 0.0 2.0 0.00 0.00 0.00 82 1017.7
20260510001005 52 158 2.0 2.0 0.00 0.00 0.00 82 1017.7
20260510000505 52 337 0.0 1.0 0.00 0.00 0.00 82 1017.7
20260510000005 53 0 0.0 0.0 0.00 0.00 0.00 82 1017.7
20260509235505 53 0 0.0 0.0 0.00 0.00 0.00 82 1017.7
20260509235004 53 112 0.0 2.0 0.00 0.00 0.00 82 1017.7
20260509234505 53 112 0.0 2.0 0.00 0.00 0.00 82 1017.7
20260509234004 53 102 0.0 3.0 0.00 0.00 0.00 81 1018.8
20260509233505 53 102 1.0 4.0 0.00 0.00 0.00 82 1018.8
20260509233004 53 101 2.0 4.0 0.00 0.00 0.00 82 1018.8
20260509232505 53 89 4.0 4.0 0.00 0.00 0.00 81 1018.8
20260509232004 53 72 1.0 2.0 0.00 0.00 0.00 81 1018.8
20260509231004 53 158 0.0 2.0 0.00 0.00 0.00 81 1018.8
20260509230505 53 170 0.0 2.0 0.00 0.00 0.00 81 1018.8
20260509230004 53 181 2.0 2.0 0.00 0.00 0.00 80 1018.8
20260509225505 53 113 0.0 2.0 0.00 0.00 0.00 79 1018.8
20260509225004 54 103 0.0 3.0 0.00 0.00 0.00 80 1018.8
20260509224505 54 86 2.0 3.0 0.00 0.00 0.00 80 1018.8
20260509224005 54 65 2.0 4.0 0.00 0.00 0.00 81 1018.8
20260509223505 54 50 3.0 4.0 0.00 0.00 0.00 78 1018.8
20260509223005 54 22 0.0 2.0 0.00 0.00 0.00 78 1018.8
20260509222504 54 188 0.0 3.0 0.00 0.00 0.00 79 1017.7
20260509222005 54 219 0.0 3.0 0.00 0.00 0.00 79 1017.7
20260509221505 54 280 2.0 3.0 0.00 0.00 0.00 78 1017.7
20260509221005 54 323 2.0 2.0 0.00 0.00 0.00 77 1018.8
20260509220505 54 109 0.0 2.0 0.00 0.00 0.00 76 1018.8
20260509220011 54 111 0.0 3.0 0.00 0.00 0.00 76 1018.8
20260509215507 54 99 2.0 3.0 0.00 0.00 0.00 77 1017.7
20260509215006 54 79 2.0 3.0 0.00 0.00 0.00 77 1017.7
20260509214007 55 69 1.0 2.0 0.00 0.00 0.00 76 1017.7
20260509213506 55 0 0.0 0.0 0.00 0.00 0.00 76 1017.7
20260509213007 55 90 0.0 2.0 0.00 0.00 0.00 76 1017.7
20260509212506 55 90 0.0 2.0 0.00 0.00 0.00 76 1017.7
20260509212006 55 0 0.0 0.0 0.00 0.00 0.00 76 1017.7
20260509211006 56 85 0.0 2.0 0.00 0.00 0.00 76 1017.7
20260509210507 56 77 1.0 2.0 0.00 0.00 0.00 76 1017.7
20260509210006 56 67 1.0 4.0 0.00 0.00 0.00 73 1017.7
20260509205507 56 67 1.0 4.0 0.00 0.00 0.00 73 1018.8
20260509205006 56 70 3.0 4.0 0.00 0.00 0.00 73 1018.8
20260509204507 56 84 2.0 2.0 0.00 0.00 0.00 73 1018.8
20260509204006 56 90 0.0 2.0 0.00 0.00 0.00 73 1017.7
20260509203006 57 0 0.0 0.0 0.00 0.00 0.00 72 1017.7
20260509202507 57 0 0.0 0.0 0.00 0.00 0.00 71 1017.7
20260509202006 57 0 0.0 0.0 0.00 0.00 0.00 72 1017.7
20260509201506 58 0 0.0 0.0 0.00 0.00 0.00 70 1017.7
20260509201007 58 0 0.0 0.0 0.00 0.00 0.00 70 1017.7
20260509200007 58 258 0.0 2.0 0.00 0.00 0.00 70 1017.7
20260509195506 58 111 0.0 2.0 0.00 0.00 0.00 68 1017.7
20260509195007 59 112 0.0 2.0 0.00 0.00 0.00 68 1017.7
20260509194506 59 111 0.0 2.0 0.00 0.00 0.00 68 1017.7
20260509194006 59 0 0.0 0.0 0.00 0.00 0.00 66 1017.7
20260509193506 60 68 0.0 2.0 0.00 0.00 0.00 65 1017.7
20260509193006 60 56 0.0 2.0 0.00 0.00 0.00 66 1017.7
20260509192507 60 46 0.0 2.0 0.00 0.00 0.00 65 1017.7
20260509192006 60 0 0.0 0.0 0.00 0.00 0.00 65 1017.7
20260509191507 61 0 0.0 0.0 0.00 0.00 0.00 62 1017.7
20260509191006 61 0 0.0 0.0 0.00 0.00 0.00 62 1017.7
20260509190007 62 270 0.0 2.0 0.00 0.00 0.00 61 1017.7
20260509185507 62 270 0.0 2.0 0.00 0.00 0.00 61 1017.7
20260509185006 62 0 0.0 0.0 0.00 0.00 0.00 61 1017.7
20260509184507 63 0 0.0 0.0 0.00 0.00 0.00 59 1017.7
20260509184006 63 0 0.0 0.0 0.00 0.00 0.00 60 1017.7
20260509183506 64 292 0.0 2.0 0.00 0.00 0.00 59 1017.7
20260509183006 64 277 0.0 2.0 0.00 0.00 0.00 57 1017.7
20260509182007 65 246 0.0 2.0 0.00 0.00 0.00 56 1017.7
20260509181506 66 245 1.0 2.0 0.00 0.00 0.00 56 1017.7
20260509181007 66 181 0.0 1.0 0.00 0.00 0.00 55 1017.7
20260509180506 66 203 0.0 2.0 0.00 0.00 0.00 54 1017.7
20260509180006 67 218 0.0 2.0 0.00 0.00 0.00 54 1017.7
20260509175507 68 249 0.0 3.0 0.00 0.00 0.00 51 1017.7
20260509175006 68 247 1.0 3.0 0.00 0.00 0.00 51 1017.7
20260509174506 68 234 0.0 3.0 0.00 0.00 0.00 50 1017.7
20260509174006 69 225 2.0 3.0 0.00 0.00 0.00 50 1017.7
20260509173506 69 237 2.0 3.0 0.00 0.00 0.00 49 1017.7
20260509173010 70 234 1.0 3.0 0.00 0.00 0.00 46 1017.7
20260509171506 72 257 2.0 5.0 0.00 0.00 0.00 41 1017.7
20260509171007 72 274 2.0 5.0 0.00 0.00 0.00 40 1017.7
20260509165506 73 202 2.0 7.0 0.00 0.00 0.00 38 1017.7
20260509165007 73 203 2.0 7.0 0.00 0.00 0.00 36 1017.7
20260509164506 74 195 3.0 6.0 0.00 0.00 0.00 37 1017.7
20260509164006 74 187 1.0 9.0 0.00 0.00 0.00 37 1017.7
20260509163007 74 230 3.0 9.0 0.00 0.00 0.00 37 1017.7
20260509162506 74 243 4.0 6.0 0.00 0.00 0.00 37 1017.7
20260509162007 74 236 4.0 6.0 0.00 0.00 0.00 38 1017.7
20260509161506 74 226 4.0 6.0 0.00 0.00 0.00 37 1017.7
20260509161006 74 231 2.0 6.0 0.00 0.00 0.00 38 1017.7
20260509160507 74 258 4.0 6.0 0.00 0.00 0.00 39 1017.7
20260509160006 74 268 2.0 7.0 0.00 0.00 0.00 38 1017.7
20260509155506 74 287 3.0 7.0 0.00 0.00 0.00 38 1017.7
20260509154506 75 312 1.0 6.0 0.00 0.00 0.00 38 1017.7
20260509154006 75 268 3.0 4.0 0.00 0.00 0.00 37 1017.7
20260509153507 75 223 2.0 4.0 0.00 0.00 0.00 37 1017.7
20260509153006 75 256 1.0 9.0 0.00 0.00 0.00 36 1017.7
20260509152506 76 265 1.0 9.0 0.00 0.00 0.00 36 1017.7
20260509152006 76 270 5.0 11.0 0.00 0.00 0.00 36 1017.7
20260509151506 76 264 6.0 12.0 0.00 0.00 0.00 36 1017.7
20260509151006 76 253 4.0 12.0 0.00 0.00 0.00 35 1017.7
20260509150007 77 274 5.0 9.0 0.00 0.00 0.00 35 1017.7
20260509145506 76 269 3.0 9.0 0.00 0.00 0.00 35 1017.7
20260509145007 77 268 5.0 10.0 0.00 0.00 0.00 35 1017.7
20260509144506 77 270 7.0 10.0 0.00 0.00 0.00 34 1017.7
20260509144006 77 261 6.0 10.0 0.00 0.00 0.00 33 1017.7
20260509143506 77 261 5.0 11.0 0.00 0.00 0.00 33 1017.7
20260509143006 77 267 6.0 11.0 0.00 0.00 0.00 33 1017.7
20260509142506 77 265 4.0 11.0 0.00 0.00 0.00 33 1017.7
20260509142006 77 260 5.0 12.0 0.00 0.00 0.00 33 1017.7
20260509141506 77 261 7.0 12.0 0.00 0.00 0.00 33 1017.7
20260509141006 77 270 5.0 10.0 0.00 0.00 0.00 33 1017.7
20260509140506 77 270 6.0 10.0 0.00 0.00 0.00 33 1017.7
20260509140006 77 251 1.0 11.0 0.00 0.00 0.00 33 1017.7
20260509135506 78 252 2.0 11.0 0.00 0.00 0.00 33 1017.7
20260509135006 78 269 7.0 13.0 0.00 0.00 0.00 33 1017.7
20260509134506 78 278 4.0 13.0 0.00 0.00 0.00 33 1017.7
20260509134006 78 280 5.0 11.0 0.00 0.00 0.00 33 1017.7
20260509133506 78 300 5.0 7.0 0.00 0.00 0.00 33 1017.7
20260509133006 78 323 0.0 10.0 0.00 0.00 0.00 33 1017.7
20260509132006 78 276 2.0 9.0 0.00 0.00 0.00 33 1017.7
20260509131506 78 270 5.0 8.0 0.00 0.00 0.00 33 1017.7
20260509131007 78 285 2.0 9.0 0.00 0.00 0.00 33 1017.7
20260509130506 78 289 3.0 9.0 0.00 0.00 0.00 33 1017.7
20260509130006 78 287 6.0 9.0 0.00 0.00 0.00 33 1017.7
20260509125006 78 210 4.0 9.0 0.00 0.00 0.00 32 1017.7
20260509124506 78 233 3.0 9.0 0.00 0.00 0.00 32 1017.7
20260509124006 78 285 4.0 9.0 0.00 0.00 0.00 33 1017.7
20260509123006 78 277 3.0 9.0 0.00 0.00 0.00 33 1017.7
20260509122506 78 270 3.0 9.0 0.00 0.00 0.00 33 1017.7
20260509122006 78 254 6.0 8.0 0.00 0.00 0.00 33 1017.7
20260509121506 78 209 1.0 6.0 0.00 0.00 0.00 34 1017.7
20260509115506 78 210 8.0 12.0 0.00 0.00 0.00 34 1017.7
20260509115006 78 216 9.0 12.0 0.00 0.00 0.00 35 1017.7
20260509114506 78 247 3.0 7.0 0.00 0.00 0.00 35 1017.7
20260509114006 78 264 2.0 9.0 0.00 0.00 0.00 35 1016.7
20260509113006 78 256 4.0 9.0 0.00 0.00 0.00 36 1016.7
20260509112506 78 275 4.0 11.0 0.00 0.00 0.00 36 1017.7
20260509112006 78 268 5.0 11.0 0.00 0.00 0.00 36 1017.7
20260509111506 78 262 5.0 11.0 0.00 0.00 0.00 37 1017.7
20260509111006 78 265 6.0 9.0 0.00 0.00 0.00 37 1017.7
20260509110506 77 270 5.0 9.0 0.00 0.00 0.00 37 1017.7
20260509110007 77 272 3.0 9.0 0.00 0.00 0.00 39 1017.7
20260509105506 77 263 4.0 9.0 0.00 0.00 0.00 38 1017.7
20260509105007 77 273 4.0 9.0 0.00 0.00 0.00 40 1017.7
20260509104506 77 270 3.0 9.0 0.00 0.00 0.00 41 1017.7
20260509104006 77 247 4.0 9.0 0.00 0.00 0.00 39 1017.7
20260509103006 77 259 7.0 12.0 0.00 0.00 0.00 41 1017.7
20260509102506 76 261 5.0 12.0 0.00 0.00 0.00 43 1018.8
20260509102006 77 245 5.0 9.0 0.00 0.00 0.00 44 1018.8
20260509101506 76 241 2.0 9.0 0.00 0.00 0.00 45 1018.8
20260509100506 76 243 4.0 9.0 0.00 0.00 0.00 44 1017.7
20260509100007 76 249 4.0 9.0 0.00 0.00 0.00 44 1017.7
20260509095506 75 261 6.0 9.0 0.00 0.00 0.00 43 1017.7
20260509095006 76 263 6.0 10.0 0.00 0.00 0.00 44 1017.7
20260509094006 76 251 5.0 9.0 0.00 0.00 0.00 48 1017.7
20260509093506 76 261 4.0 10.0 0.00 0.00 0.00 49 1017.7
20260509093006 75 259 3.0 10.0 0.00 0.00 0.00 49 1017.7
20260509092506 75 232 2.0 8.0 0.00 0.00 0.00 50 1018.8
20260509092006 75 229 4.0 6.0 0.00 0.00 0.00 53 1018.8
20260509091506 74 209 2.0 6.0 0.00 0.00 0.00 52 1018.8
20260509091006 74 179 2.0 6.0 0.00 0.00 0.00 53 1017.7
20260509090007 73 210 1.0 4.0 0.00 0.00 0.00 55 1017.7
20260509085006 72 260 1.0 3.0 0.00 0.00 0.00 55 1018.8
20260509083006 71 133 3.0 4.0 0.00 0.00 0.00 56 1017.7
20260509082506 70 90 1.0 5.0 0.00 0.00 0.00 58 1018.8
20260509082006 69 113 4.0 6.0 0.00 0.00 0.00 59 1018.8
20260509081506 69 125 3.0 6.0 0.00 0.00 0.00 60 1018.8
20260509081006 69 111 3.0 6.0 0.00 0.00 0.00 60 1018.8
20260509075507 68 125 3.0 6.0 0.00 0.00 0.00 63 1018.8
20260509075006 67 140 2.0 4.0 0.00 0.00 0.00 65 1018.8
20260509074506 66 139 1.0 3.0 0.00 0.00 0.00 64 1018.8
20260509074006 66 93 2.0 4.0 0.00 0.00 0.00 65 1019.8
20260509073506 65 94 2.0 4.0 0.00 0.00 0.00 67 1019.8
20260509073006 65 137 2.0 5.0 0.00 0.00 0.00 66 1019.8
20260509072506 65 159 3.0 5.0 0.00 0.00 0.00 69 1019.8
20260509072006 64 158 2.0 4.0 0.00 0.00 0.00 69 1019.8
20260509071506 64 152 3.0 4.0 0.00 0.00 0.00 70 1019.8
20260509071006 63 149 2.0 4.0 0.00 0.00 0.00 71 1018.8
20260509070506 63 117 2.0 4.0 0.00 0.00 0.00 73 1018.8
20260509065506 61 109 2.0 6.0 0.00 0.00 0.00 79 1019.8
20260509065005 61 123 4.0 5.0 0.00 0.00 0.00 79 1019.8
20260509064006 60 122 3.0 5.0 0.00 0.00 0.00 81 1019.8
20260509063506 59 90 2.0 7.0 0.00 0.00 0.00 82 1019.8
20260509063006 59 105 2.0 7.0 0.00 0.00 0.00 86 1019.8
20260509062505 58 108 2.0 4.0 0.00 0.00 0.00 87 1020.8
20260509062006 58 67 2.0 4.0 0.00 0.00 0.00 88 1020.8
20260509061506 57 69 2.0 7.0 0.00 0.00 0.00 88 1020.8
20260509060506 56 89 3.0 6.0 0.00 0.00 0.00 90 1019.8
20260509060006 56 59 4.0 6.0 0.00 0.00 0.00 93 1019.8
20260509055006 55 270 3.0 5.0 0.00 0.00 0.00 93 1019.8
20260509054006 54 168 2.0 5.0 0.00 0.00 0.00 93 1020.8
20260509053006 53 151 0.0 4.0 0.00 0.00 0.00 93 1020.8
20260509052506 53 131 1.0 4.0 0.00 0.00 0.00 93 1019.8
20260509052006 53 125 2.0 2.0 0.00 0.00 0.00 93 1019.8
20260509051505 52 184 0.0 3.0 0.00 0.00 0.00 92 1019.8
20260509051006 52 175 0.0 3.0 0.00 0.00 0.00 94 1019.8
20260509050506 51 292 0.0 2.0 0.00 0.00 0.00 92 1019.8
20260509045506 51 181 0.0 2.0 0.00 0.00 0.00 92 1019.8
20260509045006 51 0 0.0 0.0 0.00 0.00 0.00 90 1019.8
20260509044505 51 337 0.0 2.0 0.00 0.00 0.00 90 1019.8
20260509044006 50 348 0.0 2.0 0.00 0.00 0.00 89 1019.8